Time,TemperatureF,DewpointF,PressureIn,WindDirection,WindDirectionDegrees,WindSpeedMPH,WindSpeedGustMPH,Humidity,HourlyPrecipIn,Conditions,Clouds,dailyrainin,SoftwareType,DateUTC
2013-04-13 00:07:00,44.1,43.5,29.45,North,-999,-999.0,-999.0,98,-99.99,,,-99.99,meteohub,2013-04-12 23:07:00,
2013-04-13 00:12:00,44.1,43.5,29.45,North,-999,-999.0,-999.0,98,-99.99,,,-99.99,meteohub,2013-04-12 23:12:00,
2013-04-13 00:22:00,44.2,43.7,29.48,North,-999,-999.0,-999.0,98,-99.99,,,-99.99,meteohub,2013-04-12 23:22:00,
2013-04-13 00:27:00,44.2,43.7,29.48,North,-999,-999.0,-999.0,98,-99.99,,,-99.99,meteohub,2013-04-12 23:27:00,
2013-04-13 00:32:00,44.2,43.7,29.48,North,-999,-999.0,-999.0,98,-99.99,,,-99.99,meteohub,2013-04-12 23:32:00,
2013-04-13 00:37:00,44.1,43.5,29.48,North,-999,-999.0,-999.0,98,-99.99,,,-99.99,meteohub,2013-04-12 23:37:00,
2013-04-13 00:42:00,44.1,43.5,29.48,North,-999,-999.0,-999.0,98,-99.99,,,-99.99,meteohub,2013-04-12 23:42:00,
2013-04-13 00:52:00,43.7,43.2,29.48,North,-999,-999.0,-999.0,98,-99.99,,,-99.99,meteohub,2013-04-12 23:52:00,
2013-04-13 00:57:00,43.7,43.2,29.48,North,-999,-999.0,-999.0,98,-99.99,,,-99.99,meteohub,2013-04-12 23:57:00,
2013-04-13 01:07:00,43.9,43.3,29.48,North,-999,-999.0,-999.0,98,-99.99,,,-99.99,meteohub,2013-04-13 00:07:00,
2013-04-13 01:12:00,43.7,43.2,29.48,North,-999,-999.0,-999.0,98,-99.99,,,-99.99,meteohub,2013-04-13 00:12:00,
2013-04-13 01:17:00,43.5,43.0,29.48,North,-999,-999.0,-999.0,98,-99.99,,,-99.99,meteohub,2013-04-13 00:17:00,
2013-04-13 01:22:00,43.5,43.0,29.48,North,-999,-999.0,-999.0,98,-99.99,,,-99.99,meteohub,2013-04-13 00:22:00,
2013-04-13 01:27:00,43.7,43.2,29.48,North,-999,-999.0,-999.0,98,-99.99,,,-99.99,meteohub,2013-04-13 00:27:00,
2013-04-13 01:37:00,43.7,43.2,29.48,North,-999,-999.0,-999.0,98,-99.99,,,-99.99,meteohub,2013-04-13 00:37:00,
2013-04-13 01:42:00,43.7,43.2,29.48,North,-999,-999.0,-999.0,98,-99.99,,,-99.99,meteohub,2013-04-13 00:42:00,
2013-04-13 01:47:00,43.9,43.3,29.48,North,-999,-999.0,-999.0,98,-99.99,,,-99.99,meteohub,2013-04-13 00:47:00,
2013-04-13 01:52:00,43.9,43.3,29.48,North,-999,-999.0,-999.0,98,-99.99,,,-99.99,meteohub,2013-04-13 00:52:00,
2013-04-13 01:57:00,43.7,43.2,29.48,North,-999,-999.0,-999.0,98,-99.99,,,-99.99,meteohub,2013-04-13 00:57:00,
2013-04-13 02:02:00,43.7,43.2,29.48,North,-999,-999.0,-999.0,98,-99.99,,,-99.99,meteohub,2013-04-13 01:02:00,
2013-04-13 02:07:00,43.7,43.2,29.51,North,-999,-999.0,-999.0,98,-99.99,,,-99.99,meteohub,2013-04-13 01:07:00,
2013-04-13 02:17:00,43.5,43.0,29.51,North,-999,-999.0,-999.0,98,-99.99,,,-99.99,meteohub,2013-04-13 01:17:00,
2013-04-13 02:27:00,43.5,43.0,29.51,North,-999,-999.0,-999.0,98,-99.99,,,-99.99,meteohub,2013-04-13 01:27:00,
2013-04-13 02:32:00,43.5,43.0,29.51,North,-999,-999.0,-999.0,98,-99.99,,,-99.99,meteohub,2013-04-13 01:32:00,
2013-04-13 02:37:00,43.5,43.0,29.51,North,-999,-999.0,-999.0,98,-99.99,,,-99.99,meteohub,2013-04-13 01:37:00,
2013-04-13 02:42:00,43.3,42.8,29.51,North,-999,-999.0,-999.0,98,-99.99,,,-99.99,meteohub,2013-04-13 01:42:00,
2013-04-13 02:47:00,43.2,42.6,29.51,North,-999,-999.0,-999.0,98,-99.99,,,-99.99,meteohub,2013-04-13 01:47:00,
2013-04-13 02:52:00,43.0,42.4,29.51,North,-999,-999.0,-999.0,98,-99.99,,,-99.99,meteohub,2013-04-13 01:52:00,
2013-04-13 02:57:00,42.8,42.3,29.51,North,-999,-999.0,-999.0,98,-99.99,,,-99.99,meteohub,2013-04-13 01:57:00,
2013-04-13 03:02:00,42.6,42.1,29.51,North,-999,-999.0,-999.0,98,-99.99,,,-99.99,meteohub,2013-04-13 02:02:00,
2013-04-13 03:07:00,42.4,41.9,29.51,North,-999,-999.0,-999.0,98,-99.99,,,-99.99,meteohub,2013-04-13 02:07:00,
2013-04-13 03:12:00,42.3,41.7,29.51,North,-999,-999.0,-999.0,98,-99.99,,,-99.99,meteohub,2013-04-13 02:12:00,
2013-04-13 03:17:00,42.3,41.7,29.51,North,-999,-999.0,-999.0,98,-99.99,,,-99.99,meteohub,2013-04-13 02:17:00,
2013-04-13 03:22:00,42.3,41.7,29.51,North,-999,-999.0,-999.0,98,-99.99,,,-99.99,meteohub,2013-04-13 02:22:00,
2013-04-13 03:27:00,42.3,41.7,29.51,North,-999,-999.0,-999.0,98,-99.99,,,-99.99,meteohub,2013-04-13 02:27:00,
2013-04-13 03:32:00,42.3,41.7,29.51,North,-999,-999.0,-999.0,98,-99.99,,,-99.99,meteohub,2013-04-13 02:32:00,
2013-04-13 03:37:00,42.3,41.7,29.51,North,-999,-999.0,-999.0,98,-99.99,,,-99.99,meteohub,2013-04-13 02:37:00,
2013-04-13 03:42:00,42.1,41.5,29.51,North,-999,-999.0,-999.0,98,-99.99,,,-99.99,meteohub,2013-04-13 02:42:00,
2013-04-13 03:52:00,41.7,41.2,29.51,North,-999,-999.0,-999.0,98,-99.99,,,-99.99,meteohub,2013-04-13 02:52:00,
2013-04-13 03:57:00,41.2,40.6,29.51,North,-999,-999.0,-999.0,98,-99.99,,,-99.99,meteohub,2013-04-13 02:57:00,
2013-04-13 04:02:00,40.8,40.3,29.51,North,-999,-999.0,-999.0,98,-99.99,,,-99.99,meteohub,2013-04-13 03:02:00,
2013-04-13 04:07:00,40.6,40.1,29.51,North,-999,-999.0,-999.0,98,-99.99,,,-99.99,meteohub,2013-04-13 03:07:00,
2013-04-13 04:12:00,40.6,40.1,29.51,North,-999,-999.0,-999.0,98,-99.99,,,-99.99,meteohub,2013-04-13 03:12:00,
2013-04-13 04:17:00,40.5,39.9,29.51,North,-999,-999.0,-999.0,98,-99.99,,,-99.99,meteohub,2013-04-13 03:17:00,
2013-04-13 04:22:00,40.3,39.7,29.54,North,-999,-999.0,-999.0,98,-99.99,,,-99.99,meteohub,2013-04-13 03:22:00,
2013-04-13 04:27:00,40.1,39.6,29.54,North,-999,-999.0,-999.0,98,-99.99,,,-99.99,meteohub,2013-04-13 03:27:00,
2013-04-13 04:32:00,39.6,39.0,29.54,North,-999,-999.0,-999.0,98,-99.99,,,-99.99,meteohub,2013-04-13 03:32:00,
2013-04-13 04:42:00,39.2,38.7,29.54,North,-999,-999.0,-999.0,98,-99.99,,,-99.99,meteohub,2013-04-13 03:42:00,
2013-04-13 04:52:00,38.5,37.9,29.54,North,-999,-999.0,-999.0,98,-99.99,,,-99.99,meteohub,2013-04-13 03:52:00,
2013-04-13 04:57:00,37.9,37.4,29.54,North,-999,-999.0,-999.0,98,-99.99,,,-99.99,meteohub,2013-04-13 03:57:00,
2013-04-13 05:02:00,37.6,37.0,29.54,North,-999,-999.0,-999.0,98,-99.99,,,-99.99,meteohub,2013-04-13 04:02:00,
2013-04-13 05:07:00,37.6,37.0,29.54,North,-999,-999.0,-999.0,98,-99.99,,,-99.99,meteohub,2013-04-13 04:07:00,
2013-04-13 05:12:00,37.6,37.0,29.54,North,-999,-999.0,-999.0,98,-99.99,,,-99.99,meteohub,2013-04-13 04:12:00,
2013-04-13 05:17:00,37.4,36.9,29.54,North,-999,-999.0,-999.0,98,-99.99,,,-99.99,meteohub,2013-04-13 04:17:00,
2013-04-13 05:22:00,37.0,36.5,29.54,North,-999,-999.0,-999.0,98,-99.99,,,-99.99,meteohub,2013-04-13 04:22:00,
2013-04-13 05:32:00,36.5,36.0,29.54,North,-999,-999.0,-999.0,98,-99.99,,,-99.99,meteohub,2013-04-13 04:32:00,
2013-04-13 05:37:00,36.3,35.8,29.54,North,-999,-999.0,-999.0,98,-99.99,,,-99.99,meteohub,2013-04-13 04:37:00,
2013-04-13 05:42:00,36.1,35.6,29.54,North,-999,-999.0,-999.0,98,-99.99,,,-99.99,meteohub,2013-04-13 04:42:00,
2013-04-13 05:47:00,35.8,35.2,29.54,North,-999,-999.0,-999.0,98,-99.99,,,-99.99,meteohub,2013-04-13 04:47:00,
2013-04-13 05:52:00,35.6,35.1,29.54,North,-999,-999.0,-999.0,98,-99.99,,,-99.99,meteohub,2013-04-13 04:52:00,
2013-04-13 05:57:00,35.6,35.1,29.54,North,-999,-999.0,-999.0,98,-99.99,,,-99.99,meteohub,2013-04-13 04:57:00,
2013-04-13 06:02:00,35.4,34.9,29.54,North,-999,-999.0,-999.0,98,-99.99,,,-99.99,meteohub,2013-04-13 05:02:00,
2013-04-13 06:07:00,35.8,35.2,29.54,North,-999,-999.0,-999.0,98,-99.99,,,-99.99,meteohub,2013-04-13 05:07:00,
2013-04-13 06:12:00,36.0,35.4,29.54,North,-999,-999.0,-999.0,98,-99.99,,,-99.99,meteohub,2013-04-13 05:12:00,
2013-04-13 06:22:00,36.0,35.4,29.54,North,-999,-999.0,-999.0,98,-99.99,,,-99.99,meteohub,2013-04-13 05:22:00,
2013-04-13 06:27:00,35.8,35.2,29.54,North,-999,-999.0,-999.0,98,-99.99,,,-99.99,meteohub,2013-04-13 05:27:00,
2013-04-13 06:32:00,36.0,35.4,29.54,North,-999,-999.0,-999.0,98,-99.99,,,-99.99,meteohub,2013-04-13 05:32:00,
2013-04-13 06:37:00,36.7,36.1,29.54,North,-999,-999.0,-999.0,98,-99.99,,,-99.99,meteohub,2013-04-13 05:37:00,
2013-04-13 06:42:00,36.9,36.3,29.54,North,-999,-999.0,-999.0,98,-99.99,,,-99.99,meteohub,2013-04-13 05:42:00,
2013-04-13 06:52:00,38.1,37.6,29.57,North,-999,-999.0,-999.0,98,-99.99,,,-99.99,meteohub,2013-04-13 05:52:00,
2013-04-13 06:57:00,38.5,37.9,29.57,North,-999,-999.0,-999.0,98,-99.99,,,-99.99,meteohub,2013-04-13 05:57:00,
2013-04-13 07:02:00,38.8,38.3,29.57,North,-999,-999.0,-999.0,98,-99.99,,,-99.99,meteohub,2013-04-13 06:02:00,
2013-04-13 07:07:00,39.4,38.8,29.57,North,-999,-999.0,-999.0,98,-99.99,,,-99.99,meteohub,2013-04-13 06:07:00,
2013-04-13 07:12:00,39.9,39.4,29.57,North,-999,-999.0,-999.0,98,-99.99,,,-99.99,meteohub,2013-04-13 06:12:00,
2013-04-13 07:17:00,40.3,39.7,29.57,North,-999,-999.0,-999.0,98,-99.99,,,-99.99,meteohub,2013-04-13 06:17:00,
2013-04-13 07:22:00,40.5,39.9,29.57,North,-999,-999.0,-999.0,98,-99.99,,,-99.99,meteohub,2013-04-13 06:22:00,
2013-04-13 07:27:00,41.0,40.5,29.57,North,-999,-999.0,-999.0,98,-99.99,,,-99.99,meteohub,2013-04-13 06:27:00,
2013-04-13 07:32:00,41.2,40.6,29.57,North,-999,-999.0,-999.0,98,-99.99,,,-99.99,meteohub,2013-04-13 06:32:00,
2013-04-13 07:37:00,43.2,42.6,29.57,North,-999,-999.0,-999.0,98,-99.99,,,-99.99,meteohub,2013-04-13 06:37:00,
2013-04-13 07:48:00,47.1,46.6,29.57,North,-999,-999.0,-999.0,98,-99.99,,,-99.99,meteohub,2013-04-13 06:48:00,
2013-04-13 07:57:00,48.9,48.4,29.57,North,-999,-999.0,-999.0,98,-99.99,,,-99.99,meteohub,2013-04-13 06:57:00,
2013-04-13 08:07:00,49.5,48.6,29.60,North,-999,-999.0,-999.0,97,-99.99,,,-99.99,meteohub,2013-04-13 07:07:00,
2013-04-13 08:12:00,49.6,46.6,29.60,North,-999,-999.0,-999.0,89,-99.99,,,-99.99,meteohub,2013-04-13 07:12:00,
2013-04-13 08:17:00,49.5,43.5,29.60,North,-999,-999.0,-999.0,80,-99.99,,,-99.99,meteohub,2013-04-13 07:17:00,
2013-04-13 08:27:00,47.5,41.9,29.60,North,-999,-999.0,-999.0,81,-99.99,,,-99.99,meteohub,2013-04-13 07:27:00,
2013-04-13 08:32:00,46.4,41.5,29.60,North,-999,-999.0,-999.0,83,-99.99,,,-99.99,meteohub,2013-04-13 07:32:00,
2013-04-13 08:42:00,45.1,41.7,29.60,North,-999,-999.0,-999.0,88,-99.99,,,-99.99,meteohub,2013-04-13 07:42:00,
2013-04-13 08:47:00,45.3,42.6,29.60,North,-999,-999.0,-999.0,90,-99.99,,,-99.99,meteohub,2013-04-13 07:47:00,
2013-04-13 08:52:00,45.3,43.2,29.60,North,-999,-999.0,-999.0,92,-99.99,,,-99.99,meteohub,2013-04-13 07:52:00,
2013-04-13 08:57:00,45.7,43.7,29.60,North,-999,-999.0,-999.0,93,-99.99,,,-99.99,meteohub,2013-04-13 07:57:00,
2013-04-13 09:07:00,46.4,44.4,29.60,North,-999,-999.0,-999.0,93,-99.99,,,-99.99,meteohub,2013-04-13 08:07:00,
2013-04-13 09:12:00,46.8,44.8,29.60,North,-999,-999.0,-999.0,93,-99.99,,,-99.99,meteohub,2013-04-13 08:12:00,
2013-04-13 09:22:00,47.5,44.8,29.60,North,-999,-999.0,-999.0,90,-99.99,,,-99.99,meteohub,2013-04-13 08:22:00,
2013-04-13 09:27:00,48.4,45.5,29.60,North,-999,-999.0,-999.0,90,-99.99,,,-99.99,meteohub,2013-04-13 08:27:00,
2013-04-13 09:37:00,48.4,44.1,29.60,North,-999,-999.0,-999.0,85,-99.99,,,-99.99,meteohub,2013-04-13 08:37:00,
2013-04-13 09:42:00,52.0,47.7,29.60,North,-999,-999.0,-999.0,85,-99.99,,,-99.99,meteohub,2013-04-13 08:42:00,
2013-04-13 09:47:00,54.7,49.3,29.60,North,-999,-999.0,-999.0,82,-99.99,,,-99.99,meteohub,2013-04-13 08:47:00,
2013-04-13 09:52:00,55.4,47.7,29.60,North,-999,-999.0,-999.0,75,-99.99,,,-99.99,meteohub,2013-04-13 08:52:00,
2013-04-13 09:57:00,56.1,46.9,29.60,North,-999,-999.0,-999.0,71,-99.99,,,-99.99,meteohub,2013-04-13 08:57:00,
2013-04-13 10:07:00,54.5,43.7,29.60,North,-999,-999.0,-999.0,67,-99.99,,,-99.99,meteohub,2013-04-13 09:07:00,
2013-04-13 10:17:00,54.0,42.4,29.60,North,-999,-999.0,-999.0,65,-99.99,,,-99.99,meteohub,2013-04-13 09:17:00,
2013-04-13 10:22:00,55.9,45.1,29.60,North,-999,-999.0,-999.0,67,-99.99,,,-99.99,meteohub,2013-04-13 09:22:00,
2013-04-13 10:27:00,56.7,45.0,29.60,North,-999,-999.0,-999.0,65,-99.99,,,-99.99,meteohub,2013-04-13 09:27:00,
2013-04-13 10:32:00,55.9,41.0,29.60,North,-999,-999.0,-999.0,57,-99.99,,,-99.99,meteohub,2013-04-13 09:32:00,
2013-04-13 10:42:00,55.6,40.6,29.60,North,-999,-999.0,-999.0,57,-99.99,,,-99.99,meteohub,2013-04-13 09:42:00,
2013-04-13 10:47:00,55.8,40.3,29.60,North,-999,-999.0,-999.0,56,-99.99,,,-99.99,meteohub,2013-04-13 09:47:00,
2013-04-13 10:57:00,57.0,39.0,29.60,North,-999,-999.0,-999.0,51,-99.99,,,-99.99,meteohub,2013-04-13 09:57:00,
2013-04-13 11:02:00,55.9,37.0,29.60,North,-999,-999.0,-999.0,49,-99.99,,,-99.99,meteohub,2013-04-13 10:02:00,
2013-04-13 11:07:00,55.6,36.7,29.60,North,-999,-999.0,-999.0,49,-99.99,,,-99.99,meteohub,2013-04-13 10:07:00,
2013-04-13 11:17:00,55.6,38.3,29.60,North,-999,-999.0,-999.0,52,-99.99,,,-99.99,meteohub,2013-04-13 10:17:00,
2013-04-13 11:27:00,57.2,38.8,29.60,North,-999,-999.0,-999.0,50,-99.99,,,-99.99,meteohub,2013-04-13 10:27:00,
2013-04-13 11:37:00,57.4,38.8,29.60,North,-999,-999.0,-999.0,50,-99.99,,,-99.99,meteohub,2013-04-13 10:37:00,
2013-04-13 11:42:00,56.7,37.2,29.60,North,-999,-999.0,-999.0,48,-99.99,,,-99.99,meteohub,2013-04-13 10:42:00,
2013-04-13 11:47:00,55.9,37.6,29.60,North,-999,-999.0,-999.0,50,-99.99,,,-99.99,meteohub,2013-04-13 10:47:00,
2013-04-13 11:57:00,55.6,37.8,29.60,North,-999,-999.0,-999.0,51,-99.99,,,-99.99,meteohub,2013-04-13 10:57:00,
2013-04-13 12:02:00,55.4,38.1,29.60,North,-999,-999.0,-999.0,52,-99.99,,,-99.99,meteohub,2013-04-13 11:02:00,
2013-04-13 12:12:00,53.8,37.9,29.60,North,-999,-999.0,-999.0,55,-99.99,,,-99.99,meteohub,2013-04-13 11:12:00,
2013-04-13 12:22:00,54.0,39.9,29.60,North,-999,-999.0,-999.0,59,-99.99,,,-99.99,meteohub,2013-04-13 11:22:00,
2013-04-13 12:27:00,54.5,41.0,29.60,North,-999,-999.0,-999.0,60,-99.99,,,-99.99,meteohub,2013-04-13 11:27:00,
2013-04-13 12:37:00,55.0,41.0,29.60,North,-999,-999.0,-999.0,59,-99.99,,,-99.99,meteohub,2013-04-13 11:37:00,
2013-04-13 12:42:00,56.3,41.7,29.60,North,-999,-999.0,-999.0,58,-99.99,,,-99.99,meteohub,2013-04-13 11:42:00,
2013-04-13 12:47:00,56.5,41.5,29.60,North,-999,-999.0,-999.0,57,-99.99,,,-99.99,meteohub,2013-04-13 11:47:00,
2013-04-13 12:52:00,55.8,40.8,29.60,North,-999,-999.0,-999.0,57,-99.99,,,-99.99,meteohub,2013-04-13 11:52:00,
2013-04-13 12:57:00,55.0,41.0,29.60,North,-999,-999.0,-999.0,59,-99.99,,,-99.99,meteohub,2013-04-13 11:57:00,
2013-04-13 13:07:00,54.5,41.4,29.60,North,-999,-999.0,-999.0,61,-99.99,,,-99.99,meteohub,2013-04-13 12:07:00,
2013-04-13 13:12:00,54.5,42.3,29.60,North,-999,-999.0,-999.0,63,-99.99,,,-99.99,meteohub,2013-04-13 12:12:00,
2013-04-13 13:22:00,54.3,42.4,29.57,North,-999,-999.0,-999.0,64,-99.99,,,-99.99,meteohub,2013-04-13 12:22:00,
2013-04-13 13:27:00,54.1,42.6,29.57,North,-999,-999.0,-999.0,65,-99.99,,,-99.99,meteohub,2013-04-13 12:27:00,
2013-04-13 13:37:00,53.4,42.8,29.57,North,-999,-999.0,-999.0,67,-99.99,,,-99.99,meteohub,2013-04-13 12:37:00,
2013-04-13 13:42:00,53.1,43.2,29.57,North,-999,-999.0,-999.0,69,-99.99,,,-99.99,meteohub,2013-04-13 12:42:00,
2013-04-13 13:47:00,53.1,43.5,29.57,North,-999,-999.0,-999.0,70,-99.99,,,-99.99,meteohub,2013-04-13 12:47:00,
2013-04-13 13:52:00,52.9,44.4,29.57,North,-999,-999.0,-999.0,73,-99.99,,,-99.99,meteohub,2013-04-13 12:52:00,
2013-04-13 14:02:00,51.6,45.7,29.57,North,-999,-999.0,-999.0,80,-99.99,,,-99.99,meteohub,2013-04-13 13:02:00,
2013-04-13 14:07:00,51.3,46.2,29.57,North,-999,-999.0,-999.0,83,-99.99,,,-99.99,meteohub,2013-04-13 13:07:00,
2013-04-13 14:17:00,51.6,46.9,29.57,North,-999,-999.0,-999.0,84,-99.99,,,-99.99,meteohub,2013-04-13 13:17:00,
2013-04-13 14:22:00,51.6,46.9,29.57,North,-999,-999.0,-999.0,84,-99.99,,,-99.99,meteohub,2013-04-13 13:22:00,
2013-04-13 14:32:00,51.6,46.9,29.57,North,-999,-999.0,-999.0,84,-99.99,,,-99.99,meteohub,2013-04-13 13:32:00,
2013-04-13 14:37:00,51.4,46.8,29.57,North,-999,-999.0,-999.0,84,-99.99,,,-99.99,meteohub,2013-04-13 13:37:00,
2013-04-13 14:42:00,51.4,47.1,29.57,North,-999,-999.0,-999.0,85,-99.99,,,-99.99,meteohub,2013-04-13 13:42:00,
2013-04-13 14:47:00,51.4,47.5,29.57,North,-999,-999.0,-999.0,86,-99.99,,,-99.99,meteohub,2013-04-13 13:47:00,
2013-04-13 14:52:00,51.3,47.3,29.57,North,-999,-999.0,-999.0,86,-99.99,,,-99.99,meteohub,2013-04-13 13:52:00,
2013-04-13 14:57:00,51.1,47.3,29.57,North,-999,-999.0,-999.0,87,-99.99,,,-99.99,meteohub,2013-04-13 13:57:00,
2013-04-13 15:02:00,51.1,48.0,29.57,North,-999,-999.0,-999.0,89,-99.99,,,-99.99,meteohub,2013-04-13 14:02:00,
2013-04-13 15:12:00,50.9,48.0,29.57,North,-999,-999.0,-999.0,90,-99.99,,,-99.99,meteohub,2013-04-13 14:12:00,
2013-04-13 15:17:00,50.9,48.4,29.57,North,-999,-999.0,-999.0,91,-99.99,,,-99.99,meteohub,2013-04-13 14:17:00,
2013-04-13 15:27:00,50.5,48.6,29.54,North,-999,-999.0,-999.0,93,-99.99,,,-99.99,meteohub,2013-04-13 14:27:00,
2013-04-13 15:32:00,50.7,48.7,29.54,North,-999,-999.0,-999.0,93,-99.99,,,-99.99,meteohub,2013-04-13 14:32:00,
2013-04-13 15:42:00,50.5,49.1,29.54,North,-999,-999.0,-999.0,95,-99.99,,,-99.99,meteohub,2013-04-13 14:42:00,
2013-04-13 15:52:00,50.4,49.3,29.54,North,-999,-999.0,-999.0,96,-99.99,,,-99.99,meteohub,2013-04-13 14:52:00,
2013-04-13 15:57:00,50.4,49.3,29.54,North,-999,-999.0,-999.0,96,-99.99,,,-99.99,meteohub,2013-04-13 14:57:00,
2013-04-13 16:07:00,50.4,49.3,29.54,North,-999,-999.0,-999.0,96,-99.99,,,-99.99,meteohub,2013-04-13 15:07:00,
2013-04-13 16:12:00,50.4,49.5,29.54,North,-999,-999.0,-999.0,97,-99.99,,,-99.99,meteohub,2013-04-13 15:12:00,
2013-04-13 16:17:00,50.4,49.5,29.54,North,-999,-999.0,-999.0,97,-99.99,,,-99.99,meteohub,2013-04-13 15:17:00,
2013-04-13 16:22:00,50.4,49.5,29.54,North,-999,-999.0,-999.0,97,-99.99,,,-99.99,meteohub,2013-04-13 15:22:00,
2013-04-13 16:32:00,50.4,49.8,29.54,North,-999,-999.0,-999.0,98,-99.99,,,-99.99,meteohub,2013-04-13 15:32:00,
2013-04-13 16:37:00,50.4,49.8,29.54,North,-999,-999.0,-999.0,98,-99.99,,,-99.99,meteohub,2013-04-13 15:37:00,
2013-04-13 16:42:00,50.5,50.0,29.54,North,-999,-999.0,-999.0,98,-99.99,,,-99.99,meteohub,2013-04-13 15:42:00,
2013-04-13 16:52:00,50.5,50.0,29.54,North,-999,-999.0,-999.0,98,-99.99,,,-99.99,meteohub,2013-04-13 15:52:00,
2013-04-13 17:02:00,50.7,50.2,29.54,North,-999,-999.0,-999.0,98,-99.99,,,-99.99,meteohub,2013-04-13 16:02:00,
2013-04-13 17:12:00,50.7,50.2,29.51,North,-999,-999.0,-999.0,98,-99.99,,,-99.99,meteohub,2013-04-13 16:12:00,
2013-04-13 17:17:00,50.9,50.4,29.51,North,-999,-999.0,-999.0,98,-99.99,,,-99.99,meteohub,2013-04-13 16:17:00,
2013-04-13 17:27:00,50.9,50.4,29.51,North,-999,-999.0,-999.0,98,-99.99,,,-99.99,meteohub,2013-04-13 16:27:00,
2013-04-13 17:32:00,50.9,50.4,29.51,North,-999,-999.0,-999.0,98,-99.99,,,-99.99,meteohub,2013-04-13 16:32:00,
2013-04-13 17:37:00,51.1,50.5,29.51,North,-999,-999.0,-999.0,98,-99.99,,,-99.99,meteohub,2013-04-13 16:37:00,
2013-04-13 17:42:00,51.1,50.5,29.51,North,-999,-999.0,-999.0,98,-99.99,,,-99.99,meteohub,2013-04-13 16:42:00,
2013-04-13 17:52:00,51.4,50.9,29.54,North,-999,-999.0,-999.0,98,-99.99,,,-99.99,meteohub,2013-04-13 16:52:00,
2013-04-13 17:57:00,51.4,50.9,29.54,North,-999,-999.0,-999.0,98,-99.99,,,-99.99,meteohub,2013-04-13 16:57:00,
2013-04-13 18:07:00,51.6,51.1,29.51,North,-999,-999.0,-999.0,98,-99.99,,,-99.99,meteohub,2013-04-13 17:07:00,
2013-04-13 18:17:00,51.4,50.9,29.51,North,-999,-999.0,-999.0,98,-99.99,,,-99.99,meteohub,2013-04-13 17:17:00,
2013-04-13 18:22:00,51.4,50.9,29.54,North,-999,-999.0,-999.0,98,-99.99,,,-99.99,meteohub,2013-04-13 17:22:00,
2013-04-13 18:32:00,51.4,50.9,29.54,North,-999,-999.0,-999.0,98,-99.99,,,-99.99,meteohub,2013-04-13 17:32:00,
2013-04-13 18:37:00,51.4,50.9,29.51,North,-999,-999.0,-999.0,98,-99.99,,,-99.99,meteohub,2013-04-13 17:37:00,
2013-04-13 18:47:00,51.4,50.9,29.51,North,-999,-999.0,-999.0,98,-99.99,,,-99.99,meteohub,2013-04-13 17:47:00,
2013-04-13 18:57:00,51.4,50.9,29.54,North,-999,-999.0,-999.0,98,-99.99,,,-99.99,meteohub,2013-04-13 17:57:00,
2013-04-13 19:07:00,51.4,50.9,29.54,North,-999,-999.0,-999.0,98,-99.99,,,-99.99,meteohub,2013-04-13 18:07:00,
2013-04-13 19:13:00,51.4,50.9,29.54,North,-999,-999.0,-999.0,98,-99.99,,,-99.99,meteohub,2013-04-13 18:13:00,
2013-04-13 19:22:00,51.6,51.1,29.54,North,-999,-999.0,-999.0,98,-99.99,,,-99.99,meteohub,2013-04-13 18:22:00,
2013-04-13 19:27:00,51.6,51.1,29.54,North,-999,-999.0,-999.0,98,-99.99,,,-99.99,meteohub,2013-04-13 18:27:00,
2013-04-13 19:32:00,51.6,51.1,29.54,North,-999,-999.0,-999.0,98,-99.99,,,-99.99,meteohub,2013-04-13 18:32:00,
2013-04-13 19:37:00,51.6,51.1,29.54,North,-999,-999.0,-999.0,98,-99.99,,,-99.99,meteohub,2013-04-13 18:37:00,
2013-04-13 19:42:00,51.6,51.1,29.54,North,-999,-999.0,-999.0,98,-99.99,,,-99.99,meteohub,2013-04-13 18:42:00,
2013-04-13 19:47:00,51.6,51.1,29.54,North,-999,-999.0,-999.0,98,-99.99,,,-99.99,meteohub,2013-04-13 18:47:00,
2013-04-13 19:52:00,51.6,51.1,29.54,North,-999,-999.0,-999.0,98,-99.99,,,-99.99,meteohub,2013-04-13 18:52:00,
2013-04-13 19:57:00,51.6,51.1,29.54,North,-999,-999.0,-999.0,98,-99.99,,,-99.99,meteohub,2013-04-13 18:57:00,
2013-04-13 20:02:00,51.6,51.1,29.54,North,-999,-999.0,-999.0,98,-99.99,,,-99.99,meteohub,2013-04-13 19:02:00,
2013-04-13 20:07:00,51.6,51.1,29.54,North,-999,-999.0,-999.0,98,-99.99,,,-99.99,meteohub,2013-04-13 19:07:00,
2013-04-13 20:12:00,51.6,51.1,29.54,North,-999,-999.0,-999.0,98,-99.99,,,-99.99,meteohub,2013-04-13 19:12:00,
2013-04-13 20:17:00,51.6,51.1,29.54,North,-999,-999.0,-999.0,98,-99.99,,,-99.99,meteohub,2013-04-13 19:17:00,
2013-04-13 20:22:00,51.6,51.1,29.54,North,-999,-999.0,-999.0,98,-99.99,,,-99.99,meteohub,2013-04-13 19:22:00,
2013-04-13 20:27:00,51.6,51.1,29.54,North,-999,-999.0,-999.0,98,-99.99,,,-99.99,meteohub,2013-04-13 19:27:00,
2013-04-13 20:32:00,51.6,51.1,29.54,North,-999,-999.0,-999.0,98,-99.99,,,-99.99,meteohub,2013-04-13 19:32:00,
2013-04-13 20:37:00,51.6,51.1,29.54,North,-999,-999.0,-999.0,98,-99.99,,,-99.99,meteohub,2013-04-13 19:37:00,
2013-04-13 20:42:00,51.6,51.1,29.54,North,-999,-999.0,-999.0,98,-99.99,,,-99.99,meteohub,2013-04-13 19:42:00,
2013-04-13 20:47:00,51.4,50.9,29.54,North,-999,-999.0,-999.0,98,-99.99,,,-99.99,meteohub,2013-04-13 19:47:00,
2013-04-13 20:57:00,51.4,50.9,29.54,North,-999,-999.0,-999.0,98,-99.99,,,-99.99,meteohub,2013-04-13 19:57:00,
2013-04-13 21:02:00,51.4,50.9,29.54,North,-999,-999.0,-999.0,98,-99.99,,,-99.99,meteohub,2013-04-13 20:02:00,
2013-04-13 21:07:00,51.3,50.7,29.54,North,-999,-999.0,-999.0,98,-99.99,,,-99.99,meteohub,2013-04-13 20:07:00,
2013-04-13 21:12:00,51.3,50.7,29.54,North,-999,-999.0,-999.0,98,-99.99,,,-99.99,meteohub,2013-04-13 20:12:00,
2013-04-13 21:17:00,51.4,50.9,29.54,North,-999,-999.0,-999.0,98,-99.99,,,-99.99,meteohub,2013-04-13 20:17:00,
2013-04-13 21:22:00,51.4,50.9,29.54,North,-999,-999.0,-999.0,98,-99.99,,,-99.99,meteohub,2013-04-13 20:22:00,
2013-04-13 21:27:00,51.4,50.9,29.54,North,-999,-999.0,-999.0,98,-99.99,,,-99.99,meteohub,2013-04-13 20:27:00,
2013-04-13 21:32:00,51.4,50.9,29.54,North,-999,-999.0,-999.0,98,-99.99,,,-99.99,meteohub,2013-04-13 20:32:00,
2013-04-13 21:42:00,51.6,51.1,29.57,North,-999,-999.0,-999.0,98,-99.99,,,-99.99,meteohub,2013-04-13 20:42:00,
2013-04-13 21:52:00,51.6,51.1,29.57,North,-999,-999.0,-999.0,98,-99.99,,,-99.99,meteohub,2013-04-13 20:52:00,
2013-04-13 21:57:00,51.4,50.9,29.57,North,-999,-999.0,-999.0,98,-99.99,,,-99.99,meteohub,2013-04-13 20:57:00,
2013-04-13 22:02:00,51.4,50.9,29.57,North,-999,-999.0,-999.0,98,-99.99,,,-99.99,meteohub,2013-04-13 21:02:00,
2013-04-13 22:07:00,51.4,50.9,29.57,North,-999,-999.0,-999.0,98,-99.99,,,-99.99,meteohub,2013-04-13 21:07:00,
2013-04-13 22:17:00,51.4,50.9,29.57,North,-999,-999.0,-999.0,98,-99.99,,,-99.99,meteohub,2013-04-13 21:17:00,
2013-04-13 22:22:00,51.4,50.9,29.57,North,-999,-999.0,-999.0,98,-99.99,,,-99.99,meteohub,2013-04-13 21:22:00,
2013-04-13 22:27:00,51.4,50.9,29.57,North,-999,-999.0,-999.0,98,-99.99,,,-99.99,meteohub,2013-04-13 21:27:00,
2013-04-13 22:37:00,51.4,50.9,29.57,North,-999,-999.0,-999.0,98,-99.99,,,-99.99,meteohub,2013-04-13 21:37:00,
2013-04-13 22:47:00,51.6,51.1,29.57,North,-999,-999.0,-999.0,98,-99.99,,,-99.99,meteohub,2013-04-13 21:47:00,
2013-04-13 22:52:00,51.6,51.1,29.57,North,-999,-999.0,-999.0,98,-99.99,,,-99.99,meteohub,2013-04-13 21:52:00,
2013-04-13 22:57:00,51.6,51.1,29.57,North,-999,-999.0,-999.0,98,-99.99,,,-99.99,meteohub,2013-04-13 21:57:00,
2013-04-13 23:02:00,51.8,51.3,29.57,North,-999,-999.0,-999.0,98,-99.99,,,-99.99,meteohub,2013-04-13 22:02:00,
2013-04-13 23:12:00,51.8,51.3,29.57,North,-999,-999.0,-999.0,98,-99.99,,,-99.99,meteohub,2013-04-13 22:12:00,
2013-04-13 23:22:00,52.0,51.4,29.57,North,-999,-999.0,-999.0,98,-99.99,,,-99.99,meteohub,2013-04-13 22:22:00,
2013-04-13 23:27:00,51.8,51.3,29.57,North,-999,-999.0,-999.0,98,-99.99,,,-99.99,meteohub,2013-04-13 22:27:00,
2013-04-13 23:37:00,52.0,51.4,29.57,North,-999,-999.0,-999.0,98,-99.99,,,-99.99,meteohub,2013-04-13 22:37:00,
2013-04-13 23:47:00,52.0,51.4,29.57,North,-999,-999.0,-999.0,98,-99.99,,,-99.99,meteohub,2013-04-13 22:47:00,
2013-04-13 23:52:00,52.0,51.4,29.60,North,-999,-999.0,-999.0,98,-99.99,,,-99.99,meteohub,2013-04-13 22:52:00,
2013-04-13 23:57:00,52.0,51.4,29.60,North,-999,-999.0,-999.0,98,-99.99,,,-99.99,meteohub,2013-04-13 22:57:00,